Other Public Products
Issued by NWS Charleston, SC

Current Version | Previous Version | Text Only | Print | Product List | Glossary On
Versions: 1 2 3 4 5 6 7 8 9 10 11 12 13 14 15 16 17 18 19 20 21 22 23 24 25 26 27 28 29 30 31 32 33 34 35 36 37 38 39 40 41 42 43 44 45 46 47 48 49 50
101 FPUS82 KCHS 231926 OPUCHS TEST...KCHS/KSAV Gateway Observations...TEST National Weather Service Charleston SC 200 PM EST THU FEB 23 2017 NOTE: "fair" indicates few or no clouds below 12,000 feet with no significant weather and/or obstructions to visibility. SCZ050-WAZ558-NCZ071-TXZ119-213-PAZ071-DCZ001-FLZ074-172-MI076- NYZ176-178-MAZ016-IL014-TNZ027-NJZ106-GAZ044-MD014-232000- ...Gateway Observations for Charleston International... CITY SKY/WX TMP DP RH WIND PRES REMARKS Chas Airport PTSUNNY 77 57 50 E16G25 29.82F Seattle LGT RAIN 40 34 79 N7 30.27R WCI 35 Charlotte MOSUNNY 74 46 36 SE8 29.87F Dallas DFW SUNNY 86 46 24 S16G29 29.54F Dallas Love MOSUNNY 87 45 23 S18 29.56F Philladelphia PTSUNNY 69 53 56 S9 29.82F Wash National MOSUNNY 73 55 53 S13 29.82F Baltimore MOSUNNY 76 52 43 S10 29.80F Miami MOSUNNY 79 54 41 SW14G20 29.62F Detroit MOSUNNY 67 41 38 W10 29.72F Newark MOSUNNY 62 52 69 SW9 29.82F Laguardia MOSUNNY 60 51 72 SW12 29.82F J F K MOSUNNY 53 50 89 S7 29.85F Boston Logan MOSUNNY 67 45 45 SW21 29.76F Ft. Lauderdale MOSUNNY 79 59 50 W13 29.61F Chicago O`Hare CLOUDY 43 35 73 NE17 29.81F Chicago Midway CLOUDY 45 37 73 NE15 29.80F Houston Bush SUNNY 82 56 40 SE18 29.71F Houston Hobby SUNNY 79 59 50 SE12 29.72F Nashville PTSUNNY 73 55 53 S14 29.79F Atlanta MOSUNNY 74 54 49 S6 29.85F $$ GAZ044-118-TXZ119-213-NCZ071-DCZ001-MDZ014-506-PAZ021-071-NJZ106- NYZ176-178-MAZ106-OHZ011-021-055-MIZ076-KYZ091-ILZ014-INZ047- MNZ060-ONZ431-232000- ...Gateway Observations for Savannah International... CITY SKY/WX TMP DP RH WIND PRES REMARKS Savannah Arpt PTSUNNY 78 59 51 E17G25 29.80F Atlanta MOSUNNY 74 54 49 S6 29.85F Charlotte MOSUNNY 74 46 36 SE8 29.87F Dallas DFW SUNNY 86 46 24 S16G29 29.54F Houston Bush SUNNY 82 56 40 SE18 29.71F Wash National MOSUNNY 73 55 53 S13 29.82F Wash Dulles MOSUNNY 76 50 40 S14 29.80F Baltimore MOSUNNY 76 52 43 S10 29.80F Philadelphia PTSUNNY 69 53 56 S9 29.82F Newark MOSUNNY 62 52 69 SW9 29.82F Laguardia MOSUNNY 60 51 72 SW12 29.82F J F K MOSUNNY 53 50 89 S7 29.85F Boston MOSUNNY 67 45 45 SW21 29.76F Pittsburg PTSUNNY 66 55 67 SW8 29.78F Akron PTSUNNY 68 54 60 SW14 29.76F Cleveland CLOUDY 67 53 61 W15 29.78R Cincinnati CLOUDY 69 56 62 SW9 29.76F Columbus PTSUNNY 68 57 67 SW13G20 29.76F Detroit MOSUNNY 67 41 38 W10 29.72F Chicago O`Hare CLOUDY 43 35 73 NE17 29.81F Minneapolis CLOUDY 38 23 55 N17 29.91F WCI 28 Indianapolis PTSUNNY 67 55 65 SW9G18 29.72F Toronto Canada MOSUNNY 63 45 51 W24G30 29.64R $$

USA.gov is the U.S. government's official web portal to all federal, state and local government web resources and services.